Flag for U.S.A. Weather past 2 weeks in Furnace Creek (Death Valley), California, U.S.A.

Now
43 °F

Clear.


Feels Like: 41 °F
Forecast: 42 / 73 °F
Wind: 3 mph from Northeast

Location: Desert Rock Airport

Current Time: Dec 21, 2014 at 11:58:49 PM

Latest Report: Dec 21, 2014 at 10:52 PM


Visibility: 10 mi

Pressure: 30.11 "Hg

Humidity: 79%

Dew point: 37 °F

Location of Furnace Creek (Death Valley)Location

Historic Weather in Furnace Creek (Death Valley) — Graph

°F

Furnace Creek (Death Valley) temperature yesterday

Maximum temperature yesterday: 49 °F (at 10:52 AM)
Minimum temperature yesterday: 34 °F (at 3:52 AM)
Average temperature yesterday: 41 °F

Past Weeks' High & Low Weather Summary

 TemperatureHumidityPressure
High65 °F (Dec 8, 2:52 PM)97% (Dec 13, 7:59 AM)30.29 "Hg (Dec 13, 7:59 AM)
Low32 °F (Dec 14, 4:52 AM)27% (Dec 10, 12:52 PM)29.74 "Hg (Dec 12, 6:52 AM)
Average46 °F68%30.04 "Hg
* Reported Dec 6 9:52 PM — Dec 21 9:52 PM, Furnace Creek (Death Valley), Weather by CustomWeather, © 2014

Note: Actual official high and low records may vary slightly from our data, if they occured in-between our weather recording intervals... More about our weather records

Advertising

Furnace Creek (Death Valley) weather history for previous 24 hours

 ConditionsComfort  
Time TempWeatherWind HumidityBarometerVisibility
9:52 PM
Dec 21
41 °FClear.No wind86%30.12 "Hg10 mi
8:52 PM46 °FClear.No wind71%30.13 "Hg10 mi
7:52 PM44 °FClear.No wind82%30.12 "Hg10 mi
6:52 PM45 °FClear.6 mph80%30.11 "Hg10 mi
5:52 PM47 °FClear.No wind71%30.11 "Hg10 mi
4:52 PM48 °FClear.5 mph68%30.09 "Hg10 mi
3:52 PM50 °FSunny.No wind63%30.09 "Hg10 mi
2:52 PM51 °FSunny.8 mph61%30.07 "Hg10 mi
1:52 PM52 °FSunny.9 mph59%30.08 "Hg10 mi
12:52 PM52 °FSunny.8 mph59%30.10 "Hg10 mi
11:52 AM50 °FSunny.7 mph63%30.12 "Hg10 mi
10:52 AM48 °FSunny.3 mph66%30.15 "Hg10 mi
9:52 AM44 °FSunny.No wind79%30.17 "Hg10 mi
8:52 AM41 °FSunny.No wind89%30.15 "Hg10 mi
7:52 AM38 °FSunny.5 mph90%30.16 "Hg10 mi
6:52 AM34 °FSunny.No wind92%30.16 "Hg10 mi
4:52 AM36 °FClear.3 mph92%30.12 "Hg10 mi
3:52 AM36 °FClear.No wind92%30.13 "Hg10 mi
2:52 AM35 °FClear.No wind88%30.14 "Hg10 mi
11:52 PM
Dec 20
37 °FClear.No wind89%30.15 "Hg10 mi
Weather by CustomWeather, © 2014

See weather overviewHow to use our weather pages